Погода в Каннах

Франция     43°33′14″N   7°01′17″E
темп.,
°C
ветер,
м/с
пор.,
м/с
влажн.,
%
обл.,
%
осадки,
мм/ч
давл.,
гПа
погр.,
м
7 мая, пт
пт723:00+18зюз9146831 0.0 1012543
02:00+18зюз10156013 0.0 1010540
05:00+17зюз10166610 0.0 1010647
08:00+17з11166561 0.0 1009699
11:00+21з111545100 0.0 1009550
14:00+22з1316368 0.0 1008644
17:00+22з11153686 0.0 1007550
20:00+17св596883 0.0 1009242
8 мая, сб
сб823:00+16юз227641 0.0 101239
02:00+16ссв22675 0.0 101317
05:00+16з2263100 0.0 101423
08:00+16з015877 0.0 101643
11:00+16юз346113 0.0 1018306
14:00+17ю55605 0.0 1018455
17:00+17юв22635 0.0 1018331
20:00+16в23690 0.0 1018161
9 мая, вс
вс923:00+16св33690 0.0 101937
02:00+16св33692 0.0 101849
05:00+15всв347336 0.0 101784
08:00+16всв4673100 0.0 1017205
11:00+16в6107191 0.0 1017438
14:00+17всв81170100 0.0 1017483
17:00+17всв8137086 0.0 1015416
20:00+17всв91573100 0.0 1014381
10 мая, пн
пн1023:00+17всв81572100 0.0 1015356
02:00+17в9147570 0.0 1015359
05:00+17всв10168085 0.0 1014438
08:00+16всв81287100 1.2 1016426
11:00+17всв71081100 1.0 1014334
14:00+16всв101383100 1.8 1014392
17:00+15всв7893100 7.7 1013363
20:00+16всв3489100 7.8 1013116
11 мая, вт
вт1123:00+16в5892100 0.3 1013181
02:00+15в5691100 6.0 1012121
05:00+15ю4692100 5.4 1012255
08:00+15ююз468745 10.9 1011172
11:00+16ю4683100 4.2 1011357
14:00+15ю348267 9.3 1009194
17:00+16ююв12744 3.3 1008229
20:00+16юв11775 4.1 100637